Saint Simons Island, GA

10:29 PM EST on December 05, 2019 (GMT -0500)
McKinnon

Weather History for KSSI - October, 2019

Change the Weather History Date:

Thursday, October 3, 2019

  Actual Average Record
Temperature  
Mean Temperature 80 °F 74 °F  
Max Temperature 87 °F 81 °F 92 °F (1971)
Min Temperature 73 °F 67 °F 51 °F (1984)
Degree Days  
Heating Degree Days 0 0  
Month to date heating degree days 0 0  
Since 1 July heating degree days 0 0  
Cooling Degree Days 15 9  
Month to date cooling degree days 52 29  
Year to date cooling degree days 3039 2400  
Growing Degree Days 30 (Base 50)    
Moisture  
Dew Point 71 °F    
Average Humidity 74    
Maximum Humidity 93    
Minimum Humidity 55    
Precipitation  
Precipitation 0.00 in 0.19 in 3.13 in (1992)
Month to date precipitation 0.00 0.59  
Year to date precipitation 27.10 36.46  
Snow  
Snow 0.00 in - 0.00 in ()
Month to date snowfall 0.0  
Since 1 July snowfall 0.0  
Since 1 September snowfall 0.0  
Snow Depth 0.00 in    
Sea Level Pressure  
Sea Level Pressure 30.03 in    
Wind  
Wind Speed 5 mph (NE)    
Max Wind Speed 12 mph    
Max Gust Speed 15 mph    
Visibility 8 miles    
Events Fog    
T = Trace of Precipitation, MM = Missing Value Source: NWS Daily Summary

Daily Weather History Graph

Daily Weather History Graph

Search for Another Location

Airport or City:

Astronomy

Oct. 03, 2019 Rise Set
Actual Time 7:20 AM EDT 7:08 PM EDT
Civil Twilight 6:56 AM EDT 7:32 PM EDT
Nautical Twilight 6:28 AM EDT 8:00 PM EDT
Astronomical Twilight 5:59 AM EDT 8:28 PM EDT
Moon 12:31 PM EDT (10/3) 11:05 PM EDT (10/3)
Length of Visible Light 12h 36m
Length of Day
11h 48m
Waxing Crescent, 29% of the Moon is Illuminated
Oct 3
Waxing Crescent
Oct 5
First Quarter
Oct 13
Full
Oct 21
Last Quarter
Oct 27
New

Hourly Weather History & Observations

Time (EDT) Temp. Heat Index Dew Point Humidity Pressure Visibility Wind Dir Wind Speed Gust Speed Precip Events Conditions
12:53 AM 75.9 °F - 71.1 °F 85% 30.01 in 10.0 mi Calm Calm - N/A   Clear
1:53 AM 79.0 °F - 72.0 °F 79% 30.00 in 10.0 mi SSE 4.6 mph - N/A   Clear
2:53 AM 75.9 °F - 71.1 °F 85% 29.99 in 10.0 mi Calm Calm - N/A   Scattered Clouds
3:53 AM 75.0 °F - 71.1 °F 87% 29.99 in 10.0 mi Calm Calm - N/A   Partly Cloudy
4:53 AM 75.0 °F - 71.1 °F 87% 29.99 in 10.0 mi Calm Calm - N/A   Partly Cloudy
5:32 AM 73.9 °F - 70.0 °F 87% 29.99 in 10.0 mi Calm Calm - N/A   Mostly Cloudy
5:43 AM 75.0 °F - 71.1 °F 87% 30.00 in 10.0 mi Calm Calm - N/A   Scattered Clouds
5:53 AM 75.0 °F - 71.1 °F 87% 30.01 in 10.0 mi Calm Calm - N/A   Partly Cloudy
6:53 AM 73.9 °F - 70.0 °F 87% 30.02 in 9.0 mi NW 3.5 mph - N/A   Clear
7:18 AM 75.0 °F - 71.1 °F 87% 30.02 in 8.0 mi NNW 3.5 mph - N/A   Scattered Clouds
7:23 AM 73.9 °F - 71.1 °F 91% 30.02 in 2.0 mi NNW 5.8 mph - N/A   Mostly Cloudy
7:27 AM 73.9 °F - 71.1 °F 91% 30.02 in 0.8 mi NNW 5.8 mph - N/A   Mist
7:53 AM 73.0 °F - 71.1 °F 93% 30.04 in 0.2 mi NNW 4.6 mph - N/A Fog Fog
8:44 AM 73.9 °F - 71.1 °F 91% 30.04 in 0.5 mi NW 5.8 mph - N/A Fog Fog
8:53 AM 73.9 °F - 71.1 °F 91% 30.05 in 0.2 mi NNW 5.8 mph - N/A Fog Fog
9:05 AM 73.9 °F - 72.0 °F 93% 30.05 in 1.0 mi NW 6.9 mph - N/A   Mist
9:12 AM 75.0 °F - 72.0 °F 90% 30.05 in 3.0 mi NNW 6.9 mph - N/A   Overcast
9:36 AM 75.9 °F - 72.0 °F 87% 30.06 in 10.0 mi NNW 5.8 mph - N/A   Scattered Clouds
9:53 AM 80.1 °F 84.2 °F 73.0 °F 79% 30.07 in 10.0 mi NNW 4.6 mph - N/A   Clear
10:53 AM 84.0 °F 89.6 °F 72.0 °F 67% 30.06 in 10.0 mi Calm Calm - N/A   Scattered Clouds
11:03 AM 84.0 °F 89.6 °F 72.0 °F 67% 30.06 in 10.0 mi WNW 4.6 mph - N/A   Mostly Cloudy
11:53 AM 86.0 °F 91.5 °F 71.1 °F 61% 30.06 in 10.0 mi Variable 4.6 mph - N/A   Mostly Cloudy
12:06 PM 84.9 °F 89.4 °F 70.0 °F 61% 30.05 in 10.0 mi Variable 5.8 mph - N/A   Scattered Clouds
12:53 PM 86.0 °F 91.5 °F 71.1 °F 61% 30.05 in 10.0 mi East 8.1 mph - N/A   Clear
1:53 PM 86.0 °F 89.4 °F 68.0 °F 55% 30.04 in 10.0 mi East 6.9 mph - N/A   Clear
2:53 PM 86.0 °F 90.7 °F 70.0 °F 59% 30.03 in 10.0 mi ESE 9.2 mph - N/A   Clear
3:53 PM 84.9 °F 90.7 °F 72.0 °F 65% 30.02 in 10.0 mi SE 8.1 mph - N/A   Partly Cloudy
4:53 PM 84.9 °F 90.7 °F 72.0 °F 65% 30.00 in 10.0 mi SE 9.2 mph - N/A   Clear
5:53 PM 82.9 °F 87.5 °F 71.1 °F 67% 30.00 in 10.0 mi SE 8.1 mph - N/A   Clear
6:53 PM 81.0 °F 84.4 °F 70.0 °F 69% 30.01 in 10.0 mi SE 4.6 mph - N/A   Clear
7:53 PM 80.1 °F 83.2 °F 70.0 °F 71% 30.01 in 10.0 mi SE 5.8 mph - N/A   Clear
8:53 PM 80.1 °F 83.2 °F 70.0 °F 71% 30.02 in 10.0 mi SSE 6.9 mph - N/A   Clear
9:53 PM 79.0 °F - 70.0 °F 74% 30.03 in 10.0 mi SSE 5.8 mph - N/A   Clear
10:53 PM 80.1 °F 83.2 °F 70.0 °F 71% 30.04 in 10.0 mi SSE 5.8 mph - N/A   Clear
11:53 PM 80.1 °F 83.2 °F 70.0 °F 71% 30.04 in 10.0 mi South 4.6 mph - N/A   Clear